Content
SEND FEEDBACK

Daily
Averages
Monthly
Summary
United States of America

PUT IN BAY, OHIO


Home > North America > United States > Ohio
Elevation: 171 meters     Latitude: 41 39N     Longitude: 082 48W

WEATHER
 
SELECT A DAY
Number of Records: 122,466;   Date Range: 12/10/00 - 7/9/14
 
SHARE

PRINT THIS DATA

[ ← Previous Day ]
WEATHER ALMANAC - 19 FEBRUARY, 2013
[ Next Day → ]
[ °F ]   °C
Weather ElementAverageHighLow
Temperature-1.2 °C5.6 °C (1:00 am)-6.9 °C (11:00 pm)
Dewpoint-4.9 °C2.7 °C (5:00 am)-11.9 °C (10:00 pm)
Humidity75.8 %91 % (4:00 am)57 % (1:00 am)
Barometer1005.4 hPa1014.6 hPa (11:00 pm)998 hPa (5:00 am)
Wind Speed33.8 km/h40.7 km/h (12:00 pm)
Wind Gust57.5 km/h (12:00 pm)
Weather ElementAverage
Wind DirectionWSW (240.4 °)

Weather ElementTotal
Precipitation1.02 mm
Heating Degree Days19 (Base 18.3)
Averaged from 25 records on 19 February, 2013
WEATHER CONDITIONS BREAKOUT
WIND DIRECTION BREAKOUT
WEATHER BY HOUR - 19 FEBRUARY, 2013
[ °F ]   °C
Local TimeTemperatureDewpointHumidityBarometerVisibilityWind DirectionWind SpeedGust SpeedPrecipitationEventsConditions
1:00 AM5.6 °C0 °C57 %1003.4 hPaSouth (190°)24.1 km/h
1:00 AM5.4 °C-0.1 °C68 %1003.4 hPaSouth (190°)24.1 km/h
2:00 AM4.6 °C1.8 °C82 %1002 hPaSouth (190°)31.5 km/h44.4 km/h0.25 mm
3:00 AM4.1 °C2.1 °C87 %1000.7 hPaSouth (180°)33.3 km/h44.4 km/h
4:00 AM3.6 °C2.3 °C91 %999 hPaSouth (190°)33.3 km/h46.3 km/h0.76 mm
5:00 AM4.2 °C2.7 °C90 %998 hPaSouth (190°)33.3 km/h48.1 km/h
6:00 AM3.5 °C2.1 °C91 %999 hPaWSW (240°)33.3 km/h46.3 km/h
7:00 AM2.2 °C0 °C81 %1000.7 hPaWSW (250°)29.6 km/h
7:00 AM2 °C-0.2 °C85 %1000.7 hPaWSW (250°)29.6 km/h40.7 km/h
8:00 AM0.9 °C-0.6 °C90 %1001.4 hPaWSW (250°)37 km/h51.8 km/h
9:00 AM-0.9 °C-2.3 °C90 %1003 hPaWSW (240°)38.9 km/h53.8 km/h
10:00 AM-1.9 °C-4.4 °C83 %1004.1 hPaWest (260°)38.9 km/h51.8 km/h
11:00 AM-2.2 °C-5.8 °C77 %1004.4 hPaWSW (250°)38.9 km/h53.8 km/h
12:00 PM-3.1 °C-6.6 °C77 %1005.1 hPaWSW (250°)40.7 km/h57.5 km/h
1:00 PM-3.9 °C-7.2 °C69 %1005.4 hPaWSW (250°)38.9 km/h
1:00 PM-3.7 °C-7.2 °C77 %1005.4 hPaWSW (250°)38.9 km/h53.8 km/h
2:00 PM-3.7 °C-9.2 °C66 %1006.1 hPaWest (260°)40.7 km/h57.5 km/h
3:00 PM-4.4 °C-10.8 °C62 %1006.8 hPaWest (270°)35.2 km/h50.1 km/h
4:00 PM-4.9 °C-10.7 °C64 %1008.5 hPaWest (260°)33.3 km/h51.8 km/h
5:00 PM-5.3 °C-11.4 °C63 %1009.8 hPaWest (270°)33.3 km/h46.3 km/h
6:00 PM-5.6 °C-11.5 °C64 %1010.8 hPaWest (260°)31.5 km/h44.4 km/h
8:00 PM-6.5 °C-10.1 °C76 %1013.2 hPaWest (260°)31.5 km/h44.4 km/h
9:00 PM-6.6 °C-11.4 °C69 %1013.5 hPaWest (270°)33.3 km/h48.1 km/h
10:00 PM-6.7 °C-11.9 °C67 %1013.9 hPaWest (270°)31.5 km/h46.3 km/h
11:00 PM-6.9 °C-11.6 °C70 %1014.6 hPaWest (270°)31.5 km/h46.3 km/h
Hourly data recorded from CXHA, located 0 kilometers away from Put In Bay, Ohio







STORIES FROM OUR PARTNERS